Year,Month,Day,Hour,Minute,Value (Times are PST for temperature in C)
2011,07,05,00,00,12.60
2011,07,05,00,01,12.60
2011,07,05,00,02,12.60
2011,07,05,00,03,12.50
2011,07,05,00,04,12.50
2011,07,05,00,05,12.50
2011,07,05,00,06,12.40
2011,07,05,00,07,12.40
2011,07,05,00,08,12.40
2011,07,05,00,09,12.40
2011,07,05,00,10,12.40
2011,07,05,00,11,12.40
2011,07,05,00,12,12.40
2011,07,05,00,13,12.30
2011,07,05,00,14,12.30
2011,07,05,00,15,12.30
2011,07,05,00,16,12.30
2011,07,05,00,17,12.30
2011,07,05,00,18,12.30
2011,07,05,00,19,12.30
2011,07,05,00,20,12.20
2011,07,05,00,21,12.20
2011,07,05,00,22,12.20
2011,07,05,00,23,12.10
2011,07,05,00,24,12.10
2011,07,05,00,25,12.00
2011,07,05,00,26,12.00
2011,07,05,00,27,12.00
2011,07,05,00,28,12.00
2011,07,05,00,29,12.00
2011,07,05,00,30,12.00
2011,07,05,00,31,12.00
2011,07,05,00,32,12.00
2011,07,05,00,33,12.00
2011,07,05,00,34,12.00
2011,07,05,00,35,12.00
2011,07,05,00,36,11.90
2011,07,05,00,37,11.90
2011,07,05,00,38,11.90
2011,07,05,00,39,11.90
2011,07,05,00,40,11.90
2011,07,05,00,41,11.80
2011,07,05,00,42,11.80
2011,07,05,00,43,11.80
2011,07,05,00,44,11.80
2011,07,05,00,45,11.80
2011,07,05,00,46,11.80
2011,07,05,00,47,11.80
2011,07,05,00,48,11.80
2011,07,05,00,49,11.80
2011,07,05,00,50,11.80
2011,07,05,00,51,11.80
2011,07,05,00,52,11.80
2011,07,05,00,53,11.80
2011,07,05,00,54,11.70
2011,07,05,00,55,11.70
2011,07,05,00,56,11.70
2011,07,05,00,57,11.60
2011,07,05,00,58,11.60
2011,07,05,00,59,11.60
2011,07,05,01,00,11.60
2011,07,05,01,01,11.60
2011,07,05,01,02,11.60
2011,07,05,01,03,11.50
2011,07,05,01,04,11.50
2011,07,05,01,05,11.40
2011,07,05,01,06,11.40
2011,07,05,01,07,11.40
2011,07,05,01,08,11.40
2011,07,05,01,09,11.40
2011,07,05,01,10,11.40
2011,07,05,01,11,11.40
2011,07,05,01,12,11.30
2011,07,05,01,13,11.30
2011,07,05,01,14,11.30
2011,07,05,01,15,11.20
2011,07,05,01,16,11.20
2011,07,05,01,17,11.20
2011,07,05,01,18,11.20
2011,07,05,01,19,11.20
2011,07,05,01,20,11.20
2011,07,05,01,21,11.20
2011,07,05,01,22,11.20
2011,07,05,01,23,11.20
2011,07,05,01,24,11.20
2011,07,05,01,25,11.20
2011,07,05,01,26,11.20
2011,07,05,01,27,11.20
2011,07,05,01,28,11.20
2011,07,05,01,29,11.10
2011,07,05,01,30,11.10
2011,07,05,01,31,11.10
2011,07,05,01,32,11.10
2011,07,05,01,33,11.00
2011,07,05,01,34,10.90
2011,07,05,01,35,10.90
2011,07,05,01,36,10.90
2011,07,05,01,37,10.90
2011,07,05,01,38,10.80
2011,07,05,01,39,10.80
2011,07,05,01,40,10.80
2011,07,05,01,41,10.70
2011,07,05,01,42,10.70
2011,07,05,01,43,10.70
2011,07,05,01,44,10.60
2011,07,05,01,45,10.60
2011,07,05,01,46,10.60
2011,07,05,01,47,10.60
2011,07,05,01,48,10.50
2011,07,05,01,49,10.40
2011,07,05,01,50,10.40
2011,07,05,01,51,10.40
2011,07,05,01,52,10.40
2011,07,05,01,53,10.40
2011,07,05,01,54,10.40
2011,07,05,01,55,10.40
2011,07,05,01,56,10.30
2011,07,05,01,57,10.30
2011,07,05,01,58,10.30
2011,07,05,01,59,10.30
2011,07,05,02,00,10.30
2011,07,05,02,01,10.30
2011,07,05,02,02,10.40
2011,07,05,02,03,10.40
2011,07,05,02,04,10.40
2011,07,05,02,05,10.40
2011,07,05,02,06,10.40
2011,07,05,02,07,10.40
2011,07,05,02,08,10.40
2011,07,05,02,09,10.40
2011,07,05,02,10,10.30
2011,07,05,02,11,10.30
2011,07,05,02,12,10.30
2011,07,05,02,13,10.30
2011,07,05,02,14,10.20
2011,07,05,02,15,10.20
2011,07,05,02,16,10.20
2011,07,05,02,17,10.20
2011,07,05,02,18,10.30
2011,07,05,02,19,10.30
2011,07,05,02,20,10.30
2011,07,05,02,21,10.30
2011,07,05,02,22,10.30
2011,07,05,02,23,10.30
2011,07,05,02,24,10.30
2011,07,05,02,25,10.20
2011,07,05,02,26,10.20
2011,07,05,02,27,10.20
2011,07,05,02,28,10.10
2011,07,05,02,29,10.10
2011,07,05,02,30,10.10
2011,07,05,02,31,10.10
2011,07,05,02,32,10.10
2011,07,05,02,33,10.10
2011,07,05,02,34,10.10
2011,07,05,02,35,10.10
2011,07,05,02,36,10.10
2011,07,05,02,37,10.10
2011,07,05,02,38,10.10
2011,07,05,02,39,10.10
2011,07,05,02,40,10.00
2011,07,05,02,41,9.90
2011,07,05,02,42,9.90
2011,07,05,02,43,9.90
2011,07,05,02,44,9.90
2011,07,05,02,45,9.90
2011,07,05,02,46,9.90
2011,07,05,02,47,9.90
2011,07,05,02,48,9.90
2011,07,05,02,49,9.90
2011,07,05,02,50,9.90
2011,07,05,02,51,9.90
2011,07,05,02,52,9.90
2011,07,05,02,53,9.90
2011,07,05,02,54,9.90
2011,07,05,02,55,9.90
2011,07,05,02,56,9.90
2011,07,05,02,57,9.90
2011,07,05,02,58,9.90
2011,07,05,02,59,9.90
2011,07,05,03,00,9.90
2011,07,05,03,01,9.90
2011,07,05,03,02,9.80
2011,07,05,03,03,9.80
2011,07,05,03,04,9.80
2011,07,05,03,05,9.80
2011,07,05,03,06,9.80
2011,07,05,03,07,9.80
2011,07,05,03,08,9.80
2011,07,05,03,09,9.80
2011,07,05,03,10,9.80
2011,07,05,03,11,9.80
2011,07,05,03,12,9.80
2011,07,05,03,13,9.80
2011,07,05,03,14,9.80
2011,07,05,03,15,9.80
2011,07,05,03,16,9.80
2011,07,05,03,17,9.80
2011,07,05,03,18,9.80
2011,07,05,03,19,9.80
2011,07,05,03,20,9.80
2011,07,05,03,21,9.80
2011,07,05,03,22,9.80
2011,07,05,03,23,9.80
2011,07,05,03,24,9.80
2011,07,05,03,25,9.80
2011,07,05,03,26,9.80
2011,07,05,03,27,9.80
2011,07,05,03,28,9.90
2011,07,05,03,29,9.90
2011,07,05,03,30,9.90
2011,07,05,03,31,9.90
2011,07,05,03,32,9.90
2011,07,05,03,33,9.90
2011,07,05,03,34,9.90
2011,07,05,03,35,9.90
2011,07,05,03,36,9.90
2011,07,05,03,37,9.90
2011,07,05,03,38,9.90
2011,07,05,03,39,9.90
2011,07,05,03,40,9.90
2011,07,05,03,41,9.90
2011,07,05,03,42,9.90
2011,07,05,03,43,9.90
2011,07,05,03,44,9.90
2011,07,05,03,45,9.90
2011,07,05,03,46,9.80
2011,07,05,03,47,9.80
2011,07,05,03,48,9.70
2011,07,05,03,49,9.70
2011,07,05,03,50,9.70
2011,07,05,03,51,9.70
2011,07,05,03,52,9.60
2011,07,05,03,53,9.60
2011,07,05,03,54,9.50
2011,07,05,03,55,9.50
2011,07,05,03,56,9.40
2011,07,05,03,57,9.40
2011,07,05,03,58,9.40
2011,07,05,03,59,9.30
2011,07,05,04,00,9.30
2011,07,05,04,01,9.20
2011,07,05,04,02,9.20
2011,07,05,04,03,9.20
2011,07,05,04,04,9.20
2011,07,05,04,05,9.20
2011,07,05,04,06,9.20
2011,07,05,04,07,9.20
2011,07,05,04,08,9.20
2011,07,05,04,09,9.20
2011,07,05,04,10,9.20
2011,07,05,04,11,9.30
2011,07,05,04,12,9.30
2011,07,05,04,13,9.30
2011,07,05,04,14,9.20
2011,07,05,04,15,9.20
2011,07,05,04,16,9.20
2011,07,05,04,17,9.20
2011,07,05,04,18,9.20
2011,07,05,04,19,9.20
2011,07,05,04,20,9.20
2011,07,05,04,21,9.20
2011,07,05,04,22,9.20
2011,07,05,04,23,9.20
2011,07,05,04,24,9.10
2011,07,05,04,25,9.10
2011,07,05,04,26,9.20
2011,07,05,04,27,9.20
2011,07,05,04,28,9.20
2011,07,05,04,29,9.10
2011,07,05,04,30,9.10
2011,07,05,04,31,9.10
2011,07,05,04,32,9.10
2011,07,05,04,33,9.00
2011,07,05,04,34,9.00
2011,07,05,04,35,9.00
2011,07,05,04,36,9.00
2011,07,05,04,37,8.90
2011,07,05,04,38,8.90
2011,07,05,04,39,8.90
2011,07,05,04,40,8.90
2011,07,05,04,41,8.90
2011,07,05,04,42,8.90
2011,07,05,04,43,8.90
2011,07,05,04,44,8.90
2011,07,05,04,45,8.90
2011,07,05,04,46,8.90
2011,07,05,04,47,8.90
2011,07,05,04,48,8.90
2011,07,05,04,49,8.90
2011,07,05,04,50,8.90
2011,07,05,04,51,8.90
2011,07,05,04,52,8.90
2011,07,05,04,53,8.90
2011,07,05,04,54,8.80
2011,07,05,04,55,8.80
2011,07,05,04,56,8.80
2011,07,05,04,57,8.80
2011,07,05,04,58,8.80
2011,07,05,04,59,8.80
2011,07,05,05,00,8.80
2011,07,05,05,01,8.80
2011,07,05,05,02,8.80
2011,07,05,05,03,8.80
2011,07,05,05,04,8.70
2011,07,05,05,05,8.70
2011,07,05,05,06,8.70
2011,07,05,05,07,8.70
2011,07,05,05,08,8.70
2011,07,05,05,09,8.70
2011,07,05,05,10,8.70
2011,07,05,05,11,8.70
2011,07,05,05,12,8.60
2011,07,05,05,13,8.60
2011,07,05,05,14,8.60
2011,07,05,05,15,8.60
2011,07,05,05,16,8.60
2011,07,05,05,17,8.60
2011,07,05,05,18,8.60
2011,07,05,05,19,8.60
2011,07,05,05,20,8.60
2011,07,05,05,21,8.60
2011,07,05,05,22,8.50
2011,07,05,05,23,8.50
2011,07,05,05,24,8.50
2011,07,05,05,25,8.50
2011,07,05,05,26,8.50
2011,07,05,05,27,8.50
2011,07,05,05,28,8.50
2011,07,05,05,29,8.50
2011,07,05,05,30,8.50
2011,07,05,05,31,8.50
2011,07,05,05,32,8.50
2011,07,05,05,33,8.60
2011,07,05,05,34,8.60
2011,07,05,05,35,8.70
2011,07,05,05,36,8.70
2011,07,05,05,37,8.70
2011,07,05,05,38,8.80
2011,07,05,05,39,8.90
2011,07,05,05,40,8.90
2011,07,05,05,41,9.00
2011,07,05,05,42,9.00
2011,07,05,05,43,9.00
2011,07,05,05,44,9.10
2011,07,05,05,45,9.10
2011,07,05,05,46,9.20
2011,07,05,05,47,9.20
2011,07,05,05,48,9.20
2011,07,05,05,49,9.30
2011,07,05,05,50,9.30
2011,07,05,05,51,9.30
2011,07,05,05,52,9.30
2011,07,05,05,53,9.30
2011,07,05,05,54,9.40
2011,07,05,05,55,9.50
2011,07,05,05,56,9.50
2011,07,05,05,57,9.60
2011,07,05,05,58,9.60
2011,07,05,05,59,9.70
2011,07,05,06,00,9.70
2011,07,05,06,01,9.70
2011,07,05,06,02,9.70
2011,07,05,06,03,9.70
2011,07,05,06,04,9.70
2011,07,05,06,05,9.70
2011,07,05,06,06,9.80
2011,07,05,06,07,9.80
2011,07,05,06,08,9.90
2011,07,05,06,09,9.90
2011,07,05,06,10,9.90
2011,07,05,06,11,10.00
2011,07,05,06,12,10.10
2011,07,05,06,13,10.10
2011,07,05,06,14,10.10
2011,07,05,06,15,10.20
2011,07,05,06,16,10.20
2011,07,05,06,17,10.20
2011,07,05,06,18,10.20
2011,07,05,06,19,10.30
2011,07,05,06,20,10.30
2011,07,05,06,21,10.40
2011,07,05,06,22,10.40
2011,07,05,06,23,10.40
2011,07,05,06,24,10.50
2011,07,05,06,25,10.60
2011,07,05,06,26,10.60
2011,07,05,06,27,10.60
2011,07,05,06,28,10.70
2011,07,05,06,29,10.70
2011,07,05,06,30,10.80
2011,07,05,06,31,10.80
2011,07,05,06,32,10.90
2011,07,05,06,33,10.90
2011,07,05,06,34,11.00
2011,07,05,06,35,11.10
2011,07,05,06,36,11.10
2011,07,05,06,37,11.20
2011,07,05,06,38,11.40
2011,07,05,06,39,11.50
2011,07,05,06,40,11.70
2011,07,05,06,41,11.80
2011,07,05,06,42,12.00
2011,07,05,06,43,12.10
2011,07,05,06,44,12.30
2011,07,05,06,45,12.40
2011,07,05,06,46,12.50
2011,07,05,06,47,12.60
2011,07,05,06,48,12.80
2011,07,05,06,49,12.80
2011,07,05,06,50,12.90
2011,07,05,06,51,13.00
2011,07,05,06,52,13.10
2011,07,05,06,53,13.10
2011,07,05,06,54,13.20
2011,07,05,06,55,13.30
2011,07,05,06,56,13.30
2011,07,05,06,57,13.40
2011,07,05,06,58,13.40
2011,07,05,06,59,13.50
2011,07,05,07,00,13.50
2011,07,05,07,01,13.50
2011,07,05,07,02,13.50
2011,07,05,07,03,13.60
2011,07,05,07,04,13.60
2011,07,05,07,05,13.70
2011,07,05,07,06,13.70
2011,07,05,07,07,13.70
2011,07,05,07,08,13.70
2011,07,05,07,09,13.80
2011,07,05,07,10,13.90
2011,07,05,07,11,13.90
2011,07,05,07,12,14.00
2011,07,05,07,13,14.00
2011,07,05,07,14,14.10
2011,07,05,07,15,14.20
2011,07,05,07,16,14.30
2011,07,05,07,17,14.40
2011,07,05,07,18,14.50
2011,07,05,07,19,14.60
2011,07,05,07,20,14.70
2011,07,05,07,21,14.80
2011,07,05,07,22,14.90
2011,07,05,07,23,15.00
2011,07,05,07,24,15.10
2011,07,05,07,25,15.10
2011,07,05,07,26,15.20
2011,07,05,07,27,15.30
2011,07,05,07,28,15.30
2011,07,05,07,29,15.40
2011,07,05,07,30,15.50
2011,07,05,07,31,15.50
2011,07,05,07,32,15.60
2011,07,05,07,33,15.70
2011,07,05,07,34,15.80
2011,07,05,07,35,15.80
2011,07,05,07,36,15.90
2011,07,05,07,37,16.00
2011,07,05,07,38,16.10
2011,07,05,07,39,16.10
2011,07,05,07,40,16.10
2011,07,05,07,41,16.20
2011,07,05,07,42,16.20
2011,07,05,07,43,16.20
2011,07,05,07,44,16.30
2011,07,05,07,45,16.30
2011,07,05,07,46,16.40
2011,07,05,07,47,16.40
2011,07,05,07,48,16.40
2011,07,05,07,49,16.40
2011,07,05,07,50,16.40
2011,07,05,07,51,16.40
2011,07,05,07,52,16.40
2011,07,05,07,53,16.40
2011,07,05,07,54,16.40
2011,07,05,07,55,16.40
2011,07,05,07,56,16.40
2011,07,05,07,57,16.40
2011,07,05,07,58,16.40
2011,07,05,07,59,16.40
2011,07,05,08,00,16.40
2011,07,05,08,01,16.40
2011,07,05,08,02,16.40
2011,07,05,08,03,16.50
2011,07,05,08,04,16.60
2011,07,05,08,05,16.70
2011,07,05,08,06,16.70
2011,07,05,08,07,16.70
2011,07,05,08,08,16.80
2011,07,05,08,09,16.80
2011,07,05,08,10,16.90
2011,07,05,08,11,16.90
2011,07,05,08,12,16.90
2011,07,05,08,13,16.90
2011,07,05,08,14,17.00
2011,07,05,08,15,17.00
2011,07,05,08,16,17.00
2011,07,05,08,17,17.00
2011,07,05,08,18,17.00
2011,07,05,08,19,17.00
2011,07,05,08,20,17.00
2011,07,05,08,21,17.10
2011,07,05,08,22,17.10
2011,07,05,08,23,17.20
2011,07,05,08,24,17.20
2011,07,05,08,25,17.30
2011,07,05,08,26,17.40
2011,07,05,08,27,17.40
2011,07,05,08,28,17.50
2011,07,05,08,29,17.50
2011,07,05,08,30,17.70
2011,07,05,08,31,17.70
2011,07,05,08,32,17.80
2011,07,05,08,33,17.90
2011,07,05,08,34,18.00
2011,07,05,08,35,18.10
2011,07,05,08,36,18.20
2011,07,05,08,37,18.20
2011,07,05,08,38,18.30
2011,07,05,08,39,18.40
2011,07,05,08,40,18.40
2011,07,05,08,41,18.50
2011,07,05,08,42,18.60
2011,07,05,08,43,18.60
2011,07,05,08,44,18.60
2011,07,05,08,45,18.60
2011,07,05,08,46,18.60
2011,07,05,08,47,18.70
2011,07,05,08,48,18.70
2011,07,05,08,49,18.80
2011,07,05,08,50,18.90
2011,07,05,08,51,19.00
2011,07,05,08,52,19.10
2011,07,05,08,53,19.10
2011,07,05,08,54,19.10
2011,07,05,08,55,19.10
2011,07,05,08,56,19.10
2011,07,05,08,57,19.10
2011,07,05,08,58,19.10
2011,07,05,08,59,19.10
2011,07,05,09,00,19.30
2011,07,05,09,01,19.40
2011,07,05,09,02,19.50
2011,07,05,09,03,19.50
2011,07,05,09,04,19.60
2011,07,05,09,05,19.60
2011,07,05,09,06,19.60
2011,07,05,09,07,19.60
2011,07,05,09,08,19.70
2011,07,05,09,09,19.70
2011,07,05,09,10,19.70
2011,07,05,09,11,19.70
2011,07,05,09,12,19.80
2011,07,05,09,13,19.80
2011,07,05,09,14,19.80
2011,07,05,09,15,19.80
2011,07,05,09,16,19.80
2011,07,05,09,17,19.80
2011,07,05,09,18,19.70
2011,07,05,09,19,19.70
2011,07,05,09,20,19.80
2011,07,05,09,21,19.90
2011,07,05,09,22,20.00
2011,07,05,09,23,20.10
2011,07,05,09,24,20.10
2011,07,05,09,25,20.10
2011,07,05,09,26,20.10
2011,07,05,09,27,20.20
2011,07,05,09,28,20.20
2011,07,05,09,29,20.30
2011,07,05,09,30,20.40
2011,07,05,09,31,20.60
2011,07,05,09,32,20.70
2011,07,05,09,33,20.80
2011,07,05,09,34,20.80
2011,07,05,09,35,20.60
2011,07,05,09,36,20.40
2011,07,05,09,37,20.20
2011,07,05,09,38,20.10
2011,07,05,09,39,20.00
2011,07,05,09,40,19.90
2011,07,05,09,41,19.80
2011,07,05,09,42,19.60
2011,07,05,09,43,19.50
2011,07,05,09,44,19.30
2011,07,05,09,45,19.10
2011,07,05,09,46,19.10
2011,07,05,09,47,19.10
2011,07,05,09,48,19.00
2011,07,05,09,49,18.90
2011,07,05,09,50,18.80
2011,07,05,09,51,18.80
2011,07,05,09,52,18.80
2011,07,05,09,53,18.80
2011,07,05,09,54,18.90
2011,07,05,09,55,18.90
2011,07,05,09,56,18.90
2011,07,05,09,57,18.90
2011,07,05,09,58,18.90
2011,07,05,09,59,18.90
2011,07,05,10,00,18.90
2011,07,05,10,01,18.90
2011,07,05,10,02,18.90
2011,07,05,10,03,18.90
2011,07,05,10,04,18.80
2011,07,05,10,05,18.80
2011,07,05,10,06,18.80
2011,07,05,10,07,18.70
2011,07,05,10,08,18.60
2011,07,05,10,09,18.50
2011,07,05,10,10,18.50
2011,07,05,10,11,18.40
2011,07,05,10,12,18.30
2011,07,05,10,13,18.30
2011,07,05,10,14,18.30
2011,07,05,10,15,18.40
2011,07,05,10,16,18.40
2011,07,05,10,17,18.50
2011,07,05,10,18,18.50
2011,07,05,10,19,18.60
2011,07,05,10,20,18.60
2011,07,05,10,21,18.60
2011,07,05,10,22,18.80
2011,07,05,10,23,18.90
2011,07,05,10,24,18.90
2011,07,05,10,25,18.90
2011,07,05,10,26,18.90
2011,07,05,10,27,18.90
2011,07,05,10,28,18.90
2011,07,05,10,29,18.90
2011,07,05,10,30,18.90
2011,07,05,10,31,19.00
2011,07,05,10,32,19.10
2011,07,05,10,33,19.10
2011,07,05,10,34,19.10
2011,07,05,10,35,19.10
2011,07,05,10,36,19.10
2011,07,05,10,37,19.10
2011,07,05,10,38,19.30
2011,07,05,10,39,19.40
2011,07,05,10,40,19.60
2011,07,05,10,41,19.80
2011,07,05,10,42,19.90
2011,07,05,10,43,20.10
2011,07,05,10,44,20.10
2011,07,05,10,45,20.20
2011,07,05,10,46,20.20
2011,07,05,10,47,20.20
2011,07,05,10,48,20.20
2011,07,05,10,49,20.20
2011,07,05,10,50,20.30
2011,07,05,10,51,20.50
2011,07,05,10,52,20.60
2011,07,05,10,53,20.70
2011,07,05,10,54,20.80
2011,07,05,10,55,20.80
2011,07,05,10,56,20.90
2011,07,05,10,57,20.90
2011,07,05,10,58,20.80
2011,07,05,10,59,20.90
2011,07,05,11,00,21.00
2011,07,05,11,01,21.00
2011,07,05,11,02,21.10
2011,07,05,11,03,21.20
2011,07,05,11,04,21.30
2011,07,05,11,05,21.20
2011,07,05,11,06,21.10
2011,07,05,11,07,21.10
2011,07,05,11,08,21.10
2011,07,05,11,09,21.20
2011,07,05,11,10,21.20
2011,07,05,11,11,21.20
2011,07,05,11,12,21.00
2011,07,05,11,13,21.10
2011,07,05,11,14,21.10
2011,07,05,11,15,21.20
2011,07,05,11,16,21.30
2011,07,05,11,17,21.40
2011,07,05,11,18,21.60
2011,07,05,11,19,21.60
2011,07,05,11,20,21.60
2011,07,05,11,21,21.60
2011,07,05,11,22,21.60
2011,07,05,11,23,21.70
2011,07,05,11,24,21.70
2011,07,05,11,25,21.80
2011,07,05,11,26,22.00
2011,07,05,11,27,22.10
2011,07,05,11,28,22.10
2011,07,05,11,29,22.20
2011,07,05,11,30,22.20
2011,07,05,11,31,22.10
2011,07,05,11,32,22.00
2011,07,05,11,33,22.00
2011,07,05,11,34,21.90
2011,07,05,11,35,21.70
2011,07,05,11,36,21.50
2011,07,05,11,37,21.40
2011,07,05,11,38,21.40
2011,07,05,11,39,21.20
2011,07,05,11,40,21.10
2011,07,05,11,41,21.00
2011,07,05,11,42,20.80
2011,07,05,11,43,20.50
2011,07,05,11,44,20.40
2011,07,05,11,45,20.30
2011,07,05,11,46,20.20
2011,07,05,11,47,20.10
2011,07,05,11,48,20.10
2011,07,05,11,49,20.10
2011,07,05,11,50,20.10
2011,07,05,11,51,20.20
2011,07,05,11,52,20.20
2011,07,05,11,53,20.20
2011,07,05,11,54,20.20
2011,07,05,11,55,20.20
2011,07,05,11,56,20.20
2011,07,05,11,57,20.20
2011,07,05,11,58,20.30
2011,07,05,11,59,20.50
2011,07,05,12,00,20.70
2011,07,05,12,01,20.80
2011,07,05,12,02,21.00
2011,07,05,12,03,21.00
2011,07,05,12,04,21.10
2011,07,05,12,05,21.20
2011,07,05,12,06,21.30
2011,07,05,12,07,21.50
2011,07,05,12,08,21.60
2011,07,05,12,09,21.60
2011,07,05,12,10,21.70
2011,07,05,12,11,21.80
2011,07,05,12,12,21.90
2011,07,05,12,13,21.90
2011,07,05,12,14,21.90
2011,07,05,12,15,21.90
2011,07,05,12,16,21.90
2011,07,05,12,17,22.00
2011,07,05,12,18,22.00
2011,07,05,12,19,21.90
2011,07,05,12,20,21.80
2011,07,05,12,21,21.60
2011,07,05,12,22,21.50
2011,07,05,12,23,21.40
2011,07,05,12,24,21.30
2011,07,05,12,25,21.30
2011,07,05,12,26,21.30
2011,07,05,12,27,21.30
2011,07,05,12,28,21.30
2011,07,05,12,29,21.30
2011,07,05,12,30,21.40
2011,07,05,12,31,21.40
2011,07,05,12,32,21.40
2011,07,05,12,33,21.60
2011,07,05,12,34,21.70
2011,07,05,12,35,21.80
2011,07,05,12,36,21.90
2011,07,05,12,37,22.00
2011,07,05,12,38,22.00
2011,07,05,12,39,22.20
2011,07,05,12,40,22.30
2011,07,05,12,41,22.50
2011,07,05,12,42,22.70
2011,07,05,12,43,22.70
2011,07,05,12,44,22.60
2011,07,05,12,45,22.60
2011,07,05,12,46,22.50
2011,07,05,12,47,22.50
2011,07,05,12,48,22.40
2011,07,05,12,49,22.40
2011,07,05,12,50,22.40
2011,07,05,12,51,22.50
2011,07,05,12,52,22.60
2011,07,05,12,53,22.60
2011,07,05,12,54,22.60
2011,07,05,12,55,22.70
2011,07,05,12,56,22.80
2011,07,05,12,57,22.90
2011,07,05,12,58,22.90
2011,07,05,12,59,22.90
2011,07,05,13,00,23.00
2011,07,05,13,01,23.10
2011,07,05,13,02,23.20
2011,07,05,13,03,23.30
2011,07,05,13,04,23.30
2011,07,05,13,05,23.30
2011,07,05,13,06,23.30
2011,07,05,13,07,23.20
2011,07,05,13,08,22.90
2011,07,05,13,09,22.70
2011,07,05,13,10,22.70
2011,07,05,13,11,22.80
2011,07,05,13,12,22.80
2011,07,05,13,13,22.80
2011,07,05,13,14,22.70
2011,07,05,13,15,22.60
2011,07,05,13,16,22.60
2011,07,05,13,17,22.60
2011,07,05,13,18,22.60
2011,07,05,13,19,22.70
2011,07,05,13,20,22.60
2011,07,05,13,21,22.60
2011,07,05,13,22,22.70
2011,07,05,13,23,22.70
2011,07,05,13,24,22.70
2011,07,05,13,25,22.80
2011,07,05,13,26,22.80
2011,07,05,13,27,22.90
2011,07,05,13,28,23.00
2011,07,05,13,29,23.10
2011,07,05,13,30,23.20
2011,07,05,13,31,23.30
2011,07,05,13,32,23.40
2011,07,05,13,33,23.60
2011,07,05,13,34,23.60
2011,07,05,13,35,23.70
2011,07,05,13,36,23.70
2011,07,05,13,37,23.70
2011,07,05,13,38,23.60
2011,07,05,13,39,23.70
2011,07,05,13,40,23.70
2011,07,05,13,41,23.70
2011,07,05,13,42,23.70
2011,07,05,13,43,23.70
2011,07,05,13,44,23.70
2011,07,05,13,45,23.70
2011,07,05,13,46,23.60
2011,07,05,13,47,23.40
2011,07,05,13,48,23.30
2011,07,05,13,49,23.20
2011,07,05,13,50,23.10
2011,07,05,13,51,23.10
2011,07,05,13,52,23.00
2011,07,05,13,53,23.00
2011,07,05,13,54,23.20
2011,07,05,13,55,23.30
2011,07,05,13,56,23.30
2011,07,05,13,57,23.40
2011,07,05,13,58,23.50
2011,07,05,13,59,23.40
2011,07,05,14,00,23.40
2011,07,05,14,01,23.30
2011,07,05,14,02,23.30
2011,07,05,14,03,23.20
2011,07,05,14,04,23.30
2011,07,05,14,05,23.30
2011,07,05,14,06,23.40
2011,07,05,14,07,23.40
2011,07,05,14,08,23.50
2011,07,05,14,09,23.60
2011,07,05,14,10,23.60
2011,07,05,14,11,23.60
2011,07,05,14,12,23.60
2011,07,05,14,13,23.60
2011,07,05,14,14,23.60
2011,07,05,14,15,23.60
2011,07,05,14,16,23.60
2011,07,05,14,17,23.50
2011,07,05,14,18,23.30
2011,07,05,14,19,23.20
2011,07,05,14,20,23.20
2011,07,05,14,21,23.30
2011,07,05,14,22,23.30
2011,07,05,14,23,23.30
2011,07,05,14,24,23.30
2011,07,05,14,25,23.30
2011,07,05,14,26,23.30
2011,07,05,14,27,23.30
2011,07,05,14,28,23.50
2011,07,05,14,29,23.60
2011,07,05,14,30,23.70
2011,07,05,14,31,23.80
2011,07,05,14,32,23.90
2011,07,05,14,33,24.10
2011,07,05,14,34,24.10
2011,07,05,14,35,24.30
2011,07,05,14,36,24.40
2011,07,05,14,37,24.50
2011,07,05,14,38,24.60
2011,07,05,14,39,24.50
2011,07,05,14,40,24.60
2011,07,05,14,41,24.60
2011,07,05,14,42,24.50
2011,07,05,14,43,24.50
2011,07,05,14,44,24.30
2011,07,05,14,45,24.10
2011,07,05,14,46,24.10
2011,07,05,14,47,24.10
2011,07,05,14,48,24.10
2011,07,05,14,49,24.10
2011,07,05,14,50,24.10
2011,07,05,14,51,24.10
2011,07,05,14,52,24.10
2011,07,05,14,53,24.10
2011,07,05,14,54,24.00
2011,07,05,14,55,23.90
2011,07,05,14,56,24.00
2011,07,05,14,57,24.10
2011,07,05,14,58,24.10
2011,07,05,14,59,24.10
2011,07,05,15,00,24.10
2011,07,05,15,01,24.10
2011,07,05,15,02,24.10
2011,07,05,15,03,24.20
2011,07,05,15,04,24.30
2011,07,05,15,05,24.30
2011,07,05,15,06,24.20
2011,07,05,15,07,24.10
2011,07,05,15,08,24.10
2011,07,05,15,09,24.00
2011,07,05,15,10,23.90
2011,07,05,15,11,23.90
2011,07,05,15,12,24.00
2011,07,05,15,13,24.10
2011,07,05,15,14,24.10
2011,07,05,15,15,24.30
2011,07,05,15,16,24.40
2011,07,05,15,17,24.60
2011,07,05,15,18,24.70
2011,07,05,15,19,24.70
2011,07,05,15,20,24.70
2011,07,05,15,21,24.70
2011,07,05,15,22,24.60
2011,07,05,15,23,24.60
2011,07,05,15,24,24.50
2011,07,05,15,25,24.50
2011,07,05,15,26,24.40
2011,07,05,15,27,24.30
2011,07,05,15,28,24.10
2011,07,05,15,29,24.00
2011,07,05,15,30,23.90
2011,07,05,15,31,23.80
2011,07,05,15,32,23.80
2011,07,05,15,33,23.90
2011,07,05,15,34,23.90
2011,07,05,15,35,23.90
2011,07,05,15,36,23.80
2011,07,05,15,37,23.80
2011,07,05,15,38,23.80
2011,07,05,15,39,23.80
2011,07,05,15,40,23.90
2011,07,05,15,41,24.00
2011,07,05,15,42,24.10
2011,07,05,15,43,24.10
2011,07,05,15,44,24.30
2011,07,05,15,45,24.40
2011,07,05,15,46,24.50
2011,07,05,15,47,24.50
2011,07,05,15,48,24.60
2011,07,05,15,49,24.50
2011,07,05,15,50,24.30
2011,07,05,15,51,24.20
2011,07,05,15,52,24.10
2011,07,05,15,53,24.00
2011,07,05,15,54,23.90
2011,07,05,15,55,23.70
2011,07,05,15,56,23.70
2011,07,05,15,57,23.70
2011,07,05,15,58,23.70
2011,07,05,15,59,23.70
2011,07,05,16,00,23.70
2011,07,05,16,01,23.70
2011,07,05,16,02,23.80
2011,07,05,16,03,23.90
2011,07,05,16,04,24.10
2011,07,05,16,05,24.20
2011,07,05,16,06,24.30
2011,07,05,16,07,24.40
2011,07,05,16,08,24.40
2011,07,05,16,09,24.40
2011,07,05,16,10,24.40
2011,07,05,16,11,24.40
2011,07,05,16,12,24.40
2011,07,05,16,13,24.40
2011,07,05,16,14,24.30
2011,07,05,16,15,24.40
2011,07,05,16,16,24.40
2011,07,05,16,17,24.50
2011,07,05,16,18,24.50
2011,07,05,16,19,24.50
2011,07,05,16,20,24.60
2011,07,05,16,21,24.60
2011,07,05,16,22,24.60
2011,07,05,16,23,24.60
2011,07,05,16,24,24.60
2011,07,05,16,25,24.60
2011,07,05,16,26,24.70
2011,07,05,16,27,24.60
2011,07,05,16,28,24.50
2011,07,05,16,29,24.40
2011,07,05,16,30,24.30
2011,07,05,16,31,24.20
2011,07,05,16,32,24.20
2011,07,05,16,33,24.20
2011,07,05,16,34,24.30
2011,07,05,16,35,24.40
2011,07,05,16,36,24.50
2011,07,05,16,37,24.60
2011,07,05,16,38,24.70
2011,07,05,16,39,24.80
2011,07,05,16,40,24.80
2011,07,05,16,41,24.70
2011,07,05,16,42,24.70
2011,07,05,16,43,24.70
2011,07,05,16,44,24.70
2011,07,05,16,45,24.70
2011,07,05,16,46,24.70
2011,07,05,16,47,24.70
2011,07,05,16,48,24.70
2011,07,05,16,49,24.70
2011,07,05,16,50,24.70
2011,07,05,16,51,24.60
2011,07,05,16,52,24.60
2011,07,05,16,53,24.70
2011,07,05,16,54,24.70
2011,07,05,16,55,24.70
2011,07,05,16,56,24.70
2011,07,05,16,57,24.80
2011,07,05,16,58,24.80
2011,07,05,16,59,24.70
2011,07,05,17,00,24.70
2011,07,05,17,01,24.60
2011,07,05,17,02,24.60
2011,07,05,17,03,24.50
2011,07,05,17,04,24.50
2011,07,05,17,05,24.50
2011,07,05,17,06,24.50
2011,07,05,17,07,24.50
2011,07,05,17,08,24.40
2011,07,05,17,09,24.50
2011,07,05,17,10,24.40
2011,07,05,17,11,24.40
2011,07,05,17,12,24.40
2011,07,05,17,13,24.40
2011,07,05,17,14,24.30
2011,07,05,17,15,24.30
2011,07,05,17,16,24.30
2011,07,05,17,17,24.30
2011,07,05,17,18,24.30
2011,07,05,17,19,24.30
2011,07,05,17,20,24.30
2011,07,05,17,21,24.30
2011,07,05,17,22,24.20
2011,07,05,17,23,24.20
2011,07,05,17,24,24.20
2011,07,05,17,25,24.30
2011,07,05,17,26,24.30
2011,07,05,17,27,24.20
2011,07,05,17,28,24.20